Regional Weather Roundup
Issued by NWS

Home | Current Version | Previous Version | Text Only | Print | Product List | Glossary Off
Versions: 1 2 3 4 5 6 7 8 9 10 11 12 13 14 15 16 17 18 19 20 21 22 23 24 25 26 27 28 29 30 31 32 33 34 35 36 37 38 39 40 41 42 43 44 45 46 47 48 49 50

000
ASUS43 KMKX 170111
RWRWI

WISCONSIN REGIONAL WEATHER ROUNDUP
NATIONAL WEATHER SERVICE MILWAUKEE/SULLIVAN WI
800 PM CDT TUE SEP 16 2014

NOTE: "FAIR" INDICATES FEW OR NO CLOUDS BELOW 12,000 FEET WITH NO
SIGNIFICANT WEATHER AND/OR OBSTRUCTIONS TO VISIBILITY.

WIZ001-002-006>008-014>016-023>028-170200-
NORTHWEST WISCONSIN

CITY           SKY/WX    TMP DP  RH WIND       PRES   REMARKS
SUPERIOR ARPT  CLEAR     56  46  70 SW7       29.99R
ASHLAND        PTCLDY    57  45  64 SW8       30.00R
HAYWARD        CLEAR     53  45  74 S3        30.03S
SIREN          CLEAR     53  45  76 CALM      30.03S
RICE LAKE      CLEAR     53  44  71 CALM      30.05S
LADYSMITH      CLEAR     53  45  75 SW3       30.06R
EAU CLAIRE     CLEAR     55  44  66 CALM      30.04F
MENOMONIE      CLEAR     54  46  75 CALM      30.05S
NEW RICHMOND   CLEAR     52  46  79 CALM      30.04S
OSCEOLA        CLEAR     53  48  84 CALM      30.05F
$$

WIZ003>005-009-010-017-018-170200-
NORTH CENTRAL WISCONSIN

CITY           SKY/WX    TMP DP  RH WIND       PRES   REMARKS
WOODRUFF       CLEAR     52  45  77 SW3       30.03S
RHINELANDER    CLEAR     49  43  80 W3        30.04S
EAGLE RIVER    CLEAR     49  42  76 SW3       30.02S
LAND O LAKES   PTCLDY    54  42  64 CALM      30.02S
PHILLIPS       CLEAR     52  45  76 CALM      30.03S
TOMAHAWK       CLEAR     51  43  73 CALM      30.05S
MEDFORD        CLEAR     52  44  74 SW5       30.05S
MERRILL        MOCLDY    52  44  75 CALM      30.05S
$$

WIZ029-030-035-036-043>047-170200-
CENTRAL WISCONSIN

CITY           SKY/WX    TMP DP  RH WIND       PRES   REMARKS
WAUSAU         CLEAR     56  46  69 SW7       30.05R
MOSINEE        CLEAR     52  46  82 SW5       30.07S
MARSHFIELD     CLEAR     54  46  74 S5        30.06S
STEVENS POINT  PTCLDY    51  43  76 CALM      30.07S
WAUPACA        CLEAR     54  46  72 CALM      30.07R
WAUTOMA        CLEAR     50  47  89 CALM      30.08S
WISC RAPIDS      N/A     50  48  93 CALM      30.08S
CAMP DOUGLAS   CLEAR     46  46 100 SE2       30.07F
$$

WIZ011>013-019>022-031-037>040-048>050-170200-
NORTHEAST WISCONSIN

CITY           SKY/WX    TMP DP  RH WIND       PRES   REMARKS
ANTIGO         CLEAR     50  43  78 SW6       30.05S
STURGEON BAY   CLEAR     55  45  67 SW7       30.04S
GREEN BAY      CLEAR     55  46  71 SW5       30.05S
MANITOWOC      CLEAR     56  46  69 SW3       30.07S
APPLETON       PTCLDY    57  43  58 SW7       30.07
CLINTONVILLE   CLEAR     52  45  76 SW6       30.06R
OSHKOSH        CLEAR     55  45  68 S5        30.07S
$$

WIZ032>034-041-042-053>061-170200-
SOUTHWEST WISCONSIN

CITY           SKY/WX    TMP DP  RH WIND       PRES   REMARKS
LA CROSSE      CLEAR     56  48  74 E5        30.05F
SPARTA         CLEAR     50  47  89 E3        30.08S
VIROQUA        FAIR      55  44  68 S3        30.07F
BOSCOBEL       CLEAR     52  49  89 CALM      30.08S
PRAIRIE DU CHI CLEAR     54  48  82 CALM      30.07S
PLATTEVILLE    FAIR      59  43  56 CALM      30.09S
$$

WIZ056-057-062-063-064-067-068-170200-
SOUTH CENTRAL WISCONSIN

CITY           SKY/WX    TMP DP  RH WIND       PRES   REMARKS
BARABOO/DELLS  CLEAR     52  45  76 CALM      30.09R
LONE ROCK      CLEAR     54  46  74 CALM      30.09R
WATERTOWN      CLEAR     49  46  87 CALM      30.09S
MADISON        CLEAR     52  46  80 CALM      30.09S
MIDDLETON      FAIR      50  48  92 W3        30.09S
MONROE         CLEAR     59  43  55 CALM      30.09S
JANESVILLE     CLEAR     55  45  67 CALM      30.08S
$$

WIZ051-052-058>065-066-070>072-170200-
SOUTHEAST WISCONSIN

CITY           SKY/WX    TMP DP  RH WIND       PRES   REMARKS
MILWAUKEE      CLEAR     54  44  69 S8        30.10R
WAUKESHA       CLEAR     46  41  81 CALM      30.10S
MILWAUKEE/TIMM NOT AVBL
RACINE         CLEAR     54  45  71 CALM      30.11S
BURLINGTON     CLEAR     48  45  89 CALM      30.10R
KENOSHA        CLEAR     54  45  71 SE5       30.11R
FOND DU LAC    CLEAR     53  44  71 SW3       30.08S
SHEBOYGAN      CLEAR     52  45  77 S3        30.08S
WEST BEND      CLEAR     50  45  81 CALM      30.08S
JUNEAU         CLEAR     52  46  78 CALM      30.10R
$$

LSZ147-162-170200-
LAKE SUPERIOR

STATION/POSITION TIME  TEMP    WIND        PRES    WAVE
                       AIR SEA DIR/SP/G            HT/PER
                 (UTC) (F)     (DEG/KT/KT) (MB)    (FT/S)
W MID LAKE BUOY  0050   50 47   50/  6/  6 1014.9R   2/ 5
DEVILS ISLAND    0100   58     230/ 10/ 11 1014.7R
PORT WING        0000   64     210/  5/  7 1015.2S
SAXON HARBOR     0040   58     190/  2/  4 1015.6S
$$

LMZ867-665-643>646-170200-
LAKE MICHIGAN

STATION/POSITION TIME  TEMP    WIND        PRES    WAVE
                       AIR SEA DIR/SP/G            HT/PER
                 (UTC) (F)     (DEG/KT/KT) (MB)    (FT/S)
N MID LAKE BUOY  0050   59 58  220/ 16/ 19 1015.7F   3/ 5
NORTHPORT PIER   0000   60     190/  3/  7 1015.6F
KEWAUNEE LAKESHO 0000   60     230/  5/  8 1016.5F
SHEBOYGAN LAKESH 0100   56 49  220/  8/  9 1018.9R
PORT WASHINGTON  0000   57     200/  4/  6 1019.3F
ATWATER BUOY     0100   59     180/ 10/ 12 1019.9F
MILWAUKEE LAKESH 0000   58     150/  9/ 11   N/A
S MID LAKE BUOY  0050   58 64  150/  4/  6 1019.6F   1
KENOSHA   LAKESH 0100   59     170/  6/  9 1019.0R
$$

TC  - TEMPERATURE IN CELSIUS
VSB - VISIBILITY IN STATUTE MILES
WCI - WIND CHILL INDEX
HX  - HEAT INDEX



USA.gov is the U.S. government's official web portal to all federal, state and local government web resources and services.